Location: Firdgum
(53.2488°N, 5.5615°E)
Time: 05:38:57
(UTC+00:00)

ATLAS 5 CENTAUR R/B - Pass Details

Date: 08 December 2019
Orbit: 550 x 1109 km, 63.4° (Epoch: 20 January)

Event Time Altitude Azimuth Distance (km) Brightness Sun altitude
Exits shadow 06:43:15 - 291° (WNW) 2,134 3.6 -7.7°
Reaches altitude 10° 06:43:23 10° 292° (WNW) 2,089 3.6 -7.7°
Maximum altitude 06:47:30 28° 352° (N) 1,346 3.0 -7.2°
Drops below altitude 10° 06:52:11 10° 51° (NE) 2,394 4.9 -6.6°
Sets 06:55:10 0° 62° (ENE) 3,436 5.9 -6.2°
